This demonstration page uses our WeatherBlox Daily Observations layout. Learn more.

Left ArrowRight Arrow

Hourly Observations for February 28, 2015

Temp ( °F °C ) Dew Point ( °F °C ) Humidity (%) Winds ( mph kmh ) Pressure ( in mb ) Visibility ( mi km ) Precip ( " mm )
12:53 am 00:53 Clear 3 -16.1 -2 -18.9 79 79 N N/A 30.73 1041 10 16 N/A
1:53 am 01:53 Clear 2 -16.7 -2 -18.9 83 83 ENE 3 6 30.74 1041 10 16 N/A
2:53 am 02:53 Mostly Clear 3 -16.1 -2 -18.9 79 79 N N/A 30.73 1041 10 16 N/A
3:53 am 03:53 Cloudy 7 -13.9 N/A 73 73 N N/A 30.73 1041 10 16 N/A
4:53 am 04:53 Clear 4 -15.6 -1 -18.3 80 80 N N/A 30.74 1041 10 16 N/A
5:53 am 05:53 Mostly Clear 3 -16.1 -1 -18.3 83 83 N N/A 30.75 1041 10 16 N/A
6:53 am 06:53 Partly Cloudy 6 -14.4 N/A 76 76 NE 3 6 30.77 1042 10 16 N/A
7:53 am 07:53 Cloudy 12 -11.1 2 -16.7 64 64 NNE 3 6 30.79 1043 10 16 N/A
8:53 am 08:53 Cloudy 14 -10 1 -17.2 56 56 E 5 7 30.80 1043 10 16 N/A
9:53 am 09:53 Cloudy 17 -8.3 1 -17.2 49 49 E 7 11 30.79 1043 10 16 N/A
10:53 am 10:53 Cloudy 19 -7.2 3 -16.1 49 49 E 7 11 30.78 1042 10 16 N/A
11:53 am 11:53 Cloudy 22 -5.6 3 -16.1 44 44 E 6 9 30.77 1042 10 16 N/A
12:53 pm 12:53 Mostly Cloudy 25 -3.9 5 -15 42 42 E 6 9 30.73 1041 10 16 N/A
1:53 pm 13:53 Mostly Cloudy 26 -3.3 6 -14.4 42 42 ENE 3 6 30.70 1040 10 16 N/A
2:53 pm 14:53 Cloudy 27 -2.8 6 -14.4 41 41 ESE 5 7 30.66 1038 10 16 N/A
3:53 pm 15:53 Mostly Cloudy 27 -2.8 8 -13.3 45 45 E 8 13 30.65 1038 10 16 N/A
4:53 pm 16:53 Mostly Cloudy 27 -2.8 10 -12.2 49 49 E 8 13 30.63 1037 10 16 N/A
5:53 pm 17:53 Cloudy 27 -2.8 10 -12.2 49 49 E 9 15 30.62 1037 10 16 N/A
6:53 pm 18:53 Cloudy 27 -2.8 11 -11.7 51 51 E 7 11 30.60 1036 10 16 N/A
7:53 pm 19:53 Cloudy 25 -3.9 12 -11.1 58 58 ENE 9 15 30.58 1036 10 16 N/A
8:53 pm 20:53 Cloudy 25 -3.9 12 -11.1 58 58 ENE 7 11 30.57 1035 10 16 N/A
9:53 pm 21:53 Cloudy 25 -3.9 12 -11.1 58 58 NE 3 6 30.58 1036 10 16 N/A
10:53 pm 22:53 Cloudy 25 -3.9 12 -11.1 58 58 NE 3 6 30.57 1035 10 16 N/A
11:26 pm 23:26 Cloudy 25 -3.9 13 -10.6 60 60 N 5 7 30.56 1035 9 14 N/A
11:53 pm 23:53 Cloudy with Light Snow 24 -4.4 16 -8.9 71 71 NE 3 6 30.56 1035 7 11 N/A

Powered by AerisWeather